Weather History for Broomfield, CO

Change the Weather History Date:

Sunday, March 20, 2011

  Actual Average Record
Temperature  
Mean Temperature 52 °F -  
Max Temperature 64 °F 52 °F 80 °F (1997)
Min Temperature 41 °F 32 °F 17 °F (1998)
Degree Days  
Heating Degree Days 12    
Growing Degree Days 2 (Base 50)    
Moisture  
Dew Point 4 °F    
Average Humidity 15    
Maximum Humidity 25    
Minimum Humidity 7    
Precipitation  
Precipitation 0.00 in - - ()
Sea Level Pressure  
Sea Level Pressure 29.87 in    
Wind  
Wind Speed 8 mph (West)    
Max Wind Speed 17 mph    
Max Gust Speed 24 mph    
Visibility 11 miles    
Events      
Averages and records for this station are not official NWS values.
T = Trace of Precipitation, MM = Missing Value Source: NWS Daily Summary

Daily Weather History Graph

Daily Weather History Graph

Search for Another Location

Airport:

Trip Planner

Search our weather history database for the weather conditions in past years. The results will help you decide how hot, cold, wet, or windy it might be!

Date:

Astronomy

Mar. 20, 2011 Rise Set
Actual Time 7:04 AM MDT 7:12 PM MDT
Civil Twilight 6:37 AM MDT 7:39 PM MDT
Nautical Twilight 6:05 AM MDT 8:10 PM MDT
Astronomical Twilight 5:33 AM MDT 8:43 PM MDT
Moon 8:54 PM MDT (3/20) 7:11 AM MDT (3/20)
Length of Visible Light 13h 02m
Length of Day
12h 08m
Full, 98% of the Moon is Illuminated
Mar 20
Full
Mar 26
Last Quarter
Apr 3
New
Apr 11
First Quarter
Apr 17
Full

Hourly Weather History & Observations

Time (MDT) Temp. Windchill Dew Point Humidity Pressure Visibility Wind Dir Wind Speed Gust Speed Precip Events Conditions
12:14 AM 48.2 °F - 8.6 °F 20% 29.80 in 10.0 mi West 4.6 mph - N/A   Clear
12:36 AM 48.2 °F - 8.6 °F 20% 29.80 in 10.0 mi West 3.5 mph - N/A   Clear
12:55 AM 44.6 °F 41.4 °F 10.4 °F 25% 29.79 in 10.0 mi West 5.8 mph - N/A   Clear
1:15 AM 46.4 °F 45.2 °F 10.4 °F 23% 29.80 in 10.0 mi SW 3.5 mph - N/A   Clear
1:35 AM 46.4 °F 45.2 °F 10.4 °F 23% 29.80 in 10.0 mi SW 3.5 mph - N/A   Clear
1:55 AM 46.4 °F 45.2 °F 8.6 °F 22% 29.82 in 10.0 mi West 3.5 mph - N/A   Clear
2:15 AM 44.6 °F 40.7 °F 10.4 °F 25% 29.81 in 10.0 mi West 6.9 mph - N/A   Clear
2:35 AM 46.4 °F 43.5 °F 6.8 °F 20% 29.82 in 10.0 mi SW 5.8 mph - N/A   Clear
2:55 AM 42.8 °F - 8.6 °F 25% 29.82 in 10.0 mi Calm Calm - N/A   Clear
3:15 AM 44.6 °F 40.7 °F 5.0 °F 20% 29.83 in 10.0 mi West 6.9 mph - N/A   Clear
3:35 AM 42.8 °F 38.6 °F 5.0 °F 21% 29.83 in 10.0 mi West 6.9 mph - N/A   Clear
3:55 AM 42.8 °F 37.5 °F 5.0 °F 21% 29.83 in 10.0 mi WSW 9.2 mph - N/A   Clear
4:14 AM 42.8 °F 38.0 °F 5.0 °F 21% 29.83 in 10.0 mi West 8.1 mph - N/A   Clear
4:35 AM 41.0 °F 35.2 °F 5.0 °F 23% 29.86 in 10.0 mi West 9.2 mph - N/A   Clear
4:55 AM 48.2 °F - -2.2 °F 12% 29.87 in 10.0 mi SW 15.0 mph 21.9 mph N/A   Clear
5:15 AM 51.8 °F - -4.0 °F 10% 29.88 in 10.0 mi SSW 17.3 mph 24.2 mph N/A   Clear
5:35 AM 51.8 °F - -4.0 °F 10% 29.90 in 10.0 mi SW 10.4 mph - N/A   Clear
5:47 AM 50.0 °F - -5.8 °F 10% 29.91 in 25.0 mi SW 9.2 mph - N/A   Mostly Cloudy
5:54 AM 46.4 °F 41.9 °F -0.4 °F 14% 29.91 in 10.0 mi West 9.2 mph - N/A   Clear
6:49 AM 48.2 °F - -2.2 °F 12% 29.94 in 30.0 mi West 13.8 mph - N/A   Scattered Clouds
7:57 AM 48.2 °F - -0.4 °F 13% 29.94 in 30.0 mi WNW 13.8 mph - N/A   Scattered Clouds
8:45 AM 50.0 °F - 1.4 °F 14% 29.93 in 30.0 mi WSW 9.2 mph - N/A   Mostly Cloudy
9:45 AM 55.4 °F - -0.4 °F 10% 29.93 in 30.0 mi SE 5.8 mph - N/A   Mostly Cloudy
10:48 AM 59.0 °F - -4.0 °F 8% 29.94 in 30.0 mi ESE 5.8 mph - N/A   Mostly Cloudy
11:46 AM 59.0 °F - 1.4 °F 10% 29.93 in 40.0 mi ENE 16.1 mph 21.9 mph N/A   Overcast
12:49 PM 62.6 °F - 1.4 °F 9% 29.92 in 30.0 mi East 17.3 mph - N/A   Overcast
1:47 PM 64.4 °F - 3.2 °F 9% 29.90 in 30.0 mi East 15.0 mph 21.9 mph N/A   Overcast
2:47 PM 62.6 °F - 3.2 °F 9% 29.90 in 30.0 mi East 12.7 mph - N/A   Overcast
3:50 PM 62.6 °F - 3.2 °F 9% 29.89 in 30.0 mi ENE 16.1 mph - N/A   Overcast
4:50 PM 64.4 °F - -0.4 °F 7% 29.86 in 30.0 mi ENE 13.8 mph - N/A   Overcast
5:45 PM 64.4 °F - -0.4 °F 7% 29.86 in - East 12.7 mph 19.6 mph N/A   Overcast
6:28 PM 64.4 °F - -0.4 °F 7% 29.86 in 25.0 mi West 12.7 mph - N/A   Overcast
6:47 PM 60.8 °F - 3.2 °F 10% 29.86 in 25.0 mi West 16.1 mph - N/A   Overcast
7:49 PM 57.2 °F - 5.0 °F 12% 29.88 in 25.0 mi NW 17.3 mph - N/A   Mostly Cloudy
8:48 PM 57.2 °F - 3.2 °F 11% 29.91 in 20.0 mi NW 15.0 mph - N/A   Overcast
9:47 PM 55.4 °F - 8.6 °F 15% 29.92 in 20.0 mi North 9.2 mph - N/A   Mostly Cloudy
11:16 PM 50.0 °F - 10.4 °F 20% 29.91 in 10.0 mi WNW 5.8 mph - N/A   Clear
11:35 PM 51.8 °F - 10.4 °F 19% 29.92 in 10.0 mi NNW 6.9 mph - N/A   Clear
11:56 PM 48.2 °F - 12.2 °F 24% 29.92 in 10.0 mi Calm Calm - N/A   Clear